This is the latest recevied weather packets stored in our database for station/object KC5TIL-3. If no packets are shown the sender has not sent any weather packets the latest 10 day(s).
| Time | Temp. | Humidity | Pressure | Rain* | Wind** | Luminosity | Snow |
|---|---|---|---|---|---|---|---|
| 1787389261 | 30.56° C | 18% | 1012.8 hPa | 0 mm | 2.24 m/s, 196° | - | - |
| 1787388960 | 30.56° C | 18% | 1012.8 hPa | 0 mm | 2.24 m/s, 216° | - | - |
| 1787388662 | 31.11° C | 18% | 1012.8 hPa | 0 mm | 3.13 m/s, 215° | - | - |
| 1787388363 | 31.11° C | 18% | 1012.8 hPa | 0 mm | 2.68 m/s, 201° | - | - |
| 1787388058 | 31.67° C | 18% | 1012.8 hPa | 0 mm | 2.68 m/s, 221° | - | - |
| 1787387760 | 31.67° C | 18% | 1012.8 hPa | 0 mm | 3.13 m/s, 200° | - | - |
| 1787387461 | 31.67° C | 18% | 1011.8 hPa | 0 mm | 1.79 m/s, 189° | - | - |
| 1787387160 | 31.67° C | 18% | 1011.8 hPa | 0 mm | 3.13 m/s, 212° | - | - |
| 1787386862 | 31.67° C | 18% | 1011.8 hPa | 0 mm | 2.24 m/s, 211° | - | - |
| 1787386564 | 31.67° C | 18% | 1011.8 hPa | 0 mm | 1.79 m/s, 195° | - | - |
| 1787386262 | 32.22° C | 18% | 1011.8 hPa | 0 mm | 3.13 m/s, 217° | - | - |
| 1787385964 | 32.22° C | 18% | 1011.8 hPa | 0 mm | 1.79 m/s, 223° | - | - |
| 1787385666 | 32.22° C | 18% | 1012.8 hPa | 0 mm | 2.24 m/s, 139° | - | - |
| 1787385365 | 32.22° C | 18% | 1012.8 hPa | 0 mm | 2.24 m/s, 209° | - | - |
| 1787385067 | 32.22° C | 18% | 1012.8 hPa | 0 mm | 3.58 m/s, 220° | - | - |
| 1787384768 | 31.67° C | 18% | 1012.8 hPa | 0 mm | 2.68 m/s, 225° | - | - |
| 1787384467 | 31.67° C | 18% | 1012.8 hPa | 0 mm | 1.79 m/s, 190° | - | - |
| 1787384169 | 31.67° C | 18% | 1012.8 hPa | 0 mm | 2.68 m/s, 203° | - | - |
| 1787383857 | 31.67° C | 18% | 1012.8 hPa | 0 mm | 2.24 m/s, 209° | - | - |
| 1787383556 | 31.67° C | 18% | 1012.8 hPa | 0 mm | 2.68 m/s, 200° | - | - |
| 1787383257 | 31.67° C | 18% | 1012.8 hPa | 0 mm | 2.24 m/s, 201° | - | - |
| 1787382959 | 31.67° C | 18% | 1012.8 hPa | 0 mm | 1.79 m/s, 197° | - | - |
| 1787382653 | 31.67° C | 18% | 1012.8 hPa | 0 mm | 1.79 m/s, 191° | - | - |
| 1787382355 | 31.67° C | 18% | 1012.8 hPa | 0 mm | 1.79 m/s, 166° | - | - |
| 1787382048 | 31.67° C | 18% | 1012.8 hPa | 0 mm | 2.24 m/s, 141° | - | - |
* Rain latest hour (hover to see other rain measurements)
** Current wind speed in m/s (hover to see current wind gust speed)